星链-36094(STARLINK-36094)

导读

STARLINK-36094是美国SpaceX公司于2025年12月2日发射的星链低轨卫星,隶属于全球规模最大的卫星互联网星座——星链系统。作为星链星座组网扩容的一部分,它运行于约550公里近地轨道,配备相控阵天线与激光星间链路,依托低轨布局实现更低时延,可为全球用户提供高速宽带卫星互联网接入服务,支持手机直连等新型通信应用。

基本信息
目录编号:
66851
目录名称:
STARLINK-36094
国际标识:
2025-281D
轨道中心:
EARTH
卫星名称:
星链-36094
卫星全名:
星链-36094(STARLINK-36094)
卫星状态:
在轨 (已飞行276 天)
发射日期:
2025-12-02 UTC
国别 :
美国 (US)
星等 :
--
轨道信息
数据来源 国际轨道数据
星历时间: 2026-09-03T20:31:19+0800
20小时前
查看轨道信息
半长轴: 6861.17km
偏心率: 0.0001356
轨道倾角: 42.998°
近地点辐角 277.395°
升交点赤经 59.082°
平近点角 82.675°
近地点: 482.102km
远地点: 483.964km
周期: 94.266分钟
每日圈数: 15.275857
详细信息
固有亮度:
5
最大亮度:
2.5
卫星平台:
Starlink V1.0
覆盖范围:
全球
运营商:
太空探索技术公司
运营商所在国:
美国
制造商(研发单位):
太空探索技术公司
制造商所在国:
美国
使用方式:
暂无
卫星简介
Starlink 计划是 SpaceX 推出的全球卫星互联网项目,通过发射低轨道卫星,为全球尤其是偏远地区提供高速、低延迟的互联网服务。自 2019 年起,Starlink 已部署数千颗卫星,旨在缩小全球数字鸿沟,推动互联网普及。该项目还为军事、航空等行业提供通信支持,带来广泛经济效益。
2D轨道图
3D轨道图
轨道高度分析图
轨道倾角分析图
轨道综合分析图
查看轨道综合分析图
交会数据列表
事件ID 空间交会对象 最接近时刻(TCA) 交会距离 交会风险概率(CRP) 交会风险指数(CRI) 操作
CDM_260906-073405-793106-685121
2026-09-06T
07:34:55+0000
0.274 km
中距离
2.173522E-4 高风险 0.82
CDM_260906-082105-793106-685121
2026-09-06T
08:21:59+0000
0.679 km
远距离
2.059968E-5 中风险 0.61
CDM_260906-060005-793106-685121
2026-09-06T
06:00:46+0000
2.488 km
极远距离
4.946006E-7 极低风险 0.29
CDM_260906-095605-793106-685121
2026-09-06T
09:56:09+0000
2.521 km
极远距离
4.853367E-7 极低风险 0.29